Temp
12 12 12 11 11 10 10 10 10 9 9 8 8 8 8 8 8 8 7 7 7 7 7 7 7 7 7 8 8 7 8 7 8 8 7 7 7 8 8 7 7 7 7
12 12 12 11 11 11 10 10 9 9 9 8 8 8 8 8 8 8 8 8 8 7 7 7 7 7 7 7 7 8 8 7 7 7 7 7 7 7 7 7 7 7 6
12 13 12 12 11 11 11 10 10 9 9 8 8 8 7 7 7 7 7 7 7 7 7 7 7 7 8 7 7 7 7 7 7 7 7 6 7 7 7 6 6 6 6
13 13 13 12 11 11 11 10 10 10 9 9 8 7 7 7 6 6 6 6 7 7 7 7 7 7 7 7 7 7 7 7 7 7 7 6 6 6 6 6 6 5 5
13 13 13 13 11 11 11 10 10 10 10 10 9 8 8 8 7 6 6 6 6 6 7 7 7 7 7 7 7 7 7 7 7 7 7 6 6 5 5 6 6 5 5
13 12 12 12 12 11 11 10 10 10 10 9 9 9 8 8 7 6 6 6 6 6 6 6 6 6 6 6 7 7 7 7 7 7 6 7 6 6 5 5 5 5 5
12 12 12 12 12 11 10 10 10 9 9 9 9 9 9 8 8 7 6 6 6 6 5 5 6 6 6 6 6 6 6 6 7 7 7 7 7 5 4 5 5 4 5
12 12 12 12 12 11 11 10 10 9 9 9 8 8 9 8 9 8 7 5 5 5 5 5 5 5 5 6 6 6 6 6 6 6 6 6 6 6 6 6 4 4 4
12 12 12 11 12 12 11 10 10 10 9 8 8 8 8 8 8 8 8 7 6 5 5 5 4 4 4 5 5 5 5 5 5 5 5 5 5 5 6 6 5 5 5
10 11 11 11 11 11 10 9 9 9 9 9 8 8 8 8 8 8 8 8 6 6 5 4 5 4 4 4 4 4 5 5 5 5 5 5 5 5 5 5 5 5 4
10 10 9 10 10 10 10 9 9 9 9 8 8 8 8 8 8 8 8 8 7 5 5 5 4 4 4 4 4 4 4 4 4 4 4 5 5 5 5 5 5 5 4
9 9 9 8 10 10 9 9 9 8 8 8 8 8 8 8 8 8 8 8 7 6 5 5 4 4 4 5 4 4 4 4 4 4 4 5 5 5 5 5 4 4 4
8 7 9 7 9 9 8 7 7 8 8 8 8 7 8 8 8 8 8 8 7 6 5 5 4 4 4 4 4 4 5 4 5 4 4 4 4 5 5 5 5 5 4
7 3 5 5 8 8 8 8 7 7 7 7 7 7 7 7 8 7 7 7 7 6 5 5 5 5 4 4 4 4 4 4 4 4 4 3 3 4 4 4 4 4 4
8 6 6 6 7 7 7 7 6 7 6 6 6 7 7 7 7 7 7 7 7 7 6 5 4 4 4 4 4 4 4 4 4 3 3 3 3 3 4 3 3 3 3
8 8 7 7 7 6 6 6 6 6 5 6 6 7 7 7 7 7 7 7 6 6 6 5 4 4 4 3 4 4 4 4 3 3 4 3 3 3 3 3 3 3 2
6 7 7 6 7 6 5 5 5 5 5 5 6 6 6 6 6 6 6 6 5 5 6 5 5 4 4 4 3 4 4 4 3 3 2 3 3 3 3 2 2 2 2
5 6 6 6 6 6 5 4 4 4 4 5 5 5 6 6 5 5 5 5 4 5 5 4 4 4 4 4 4 3 2 2 3 2 3 3 3 2 2 2 1 2 2
5 5 5 5 5 5 4 4 3 3 4 3 3 4 4 4 4 4 4 4 3 3 4 3 3 3 3 3 3 3 2 2 2 2 2 2 2 2 2 1 1 1 0
4 4 4 4 4 3 3 3 3 3 3 3 3 2 3 2 3 3 3 4 3 3 2 1 2 2 2 2 2 2 2 2 1 1 1 1 1 1 1 1 1 0 -0
3 3 4 3 1 2 1 1 1 2 2 3 3 3 1 2 3 2 2 2 2 2 2 1 1 2 2 2 1 1 1 0 0 1 1 1 0 1 -0 0 -0 -0 -0
2 2 1 2 1 1 1 2 1 2 2 2 3 3 2 2 2 2 1 1 1 1 1 0 -0 0 0 1 0 0 0 0 0 -0 -0 -0 -1 -1 -1 -0 -1 -1 -1
3 2 2 2 1 1 1 1 1 2 2 2 2 2 1 1 2 2 1 1 -0 -0 0 -0 -1 -0 -0 -0 -0 -0 -0 -1 -1 -1 -1 -1 -2 -1 -1 -1 -1 -1 -2
3 2 3 2 2 1 1 0 1 1 1 1 1 1 1 1 1 1 1 1 -0 -0 -0 0 1 1 0 -0 -0 -1 -1 -1 -1 -1 -1 -1 -1 -1 -1 -1 -1 -1 -1
3 3 3 2 1 0 -0 0 0 1 1 1 1 1 1 1 1 0 -0 0 0 0 1 1 0 0 -0 -1 -0 -1 -1 -1 -1 -1 -1 -1 -1 -1 -1 -2 -2 -2 -2
2 2 2 2 1 1 1 1 -1 0 -0 -0 0 0 0 0 1 1 1 1 0 0 0 0 0 -1 -1 -0 -1 -1 -1 -1 -2 -2 -2 -2 -2 -2 -2 -2 -2 -2 -3
Height
3150 3148 3147 3147 3147 3146 3147 3148 3147 3147 3146 3146 3145 3143 3142 3142 3142 3142 3142 3143 3142 3143 3143 3144 3145 3146 3147 3147 3147 3148 3149 3149 3149 3152 3152 3153 3153 3154 3155 3157 3158 3160 3161
3148 3147 3146 3146 3145 3145 3146 3146 3145 3146 3145 3145 3144 3143 3141 3140 3140 3139 3139 3138 3140 3140 3140 3141 3142 3143 3144 3143 3144 3146 3145 3145 3141 3148 3150 3151 3152 3152 3153 3153 3155 3157 3157
3146 3145 3144 3143 3143 3143 3143 3144 3144 3143 3144 3143 3141 3141 3140 3139 3138 3137 3136 3136 3136 3137 3136 3138 3139 3140 3140 3140 3140 3142 3142 3141 3140 3143 3147 3148 3148 3150 3150 3152 3153 3154 3154
3144 3143 3142 3141 3139 3139 3139 3139 3140 3140 3140 3139 3139 3139 3137 3136 3134 3133 3132 3132 3132 3132 3133 3133 3135 3136 3137 3137 3137 3138 3139 3139 3140 3141 3143 3144 3146 3147 3148 3149 3149 3151 3152
3140 3140 3140 3140 3139 3138 3137 3137 3137 3136 3135 3135 3135 3135 3134 3132 3131 3129 3129 3129 3129 3129 3129 3130 3132 3132 3133 3133 3134 3135 3135 3136 3137 3139 3140 3141 3142 3144 3145 3145 3146 3147 3148
3135 3136 3135 3135 3136 3134 3134 3133 3133 3134 3134 3134 3134 3133 3131 3130 3128 3126 3125 3126 3125 3126 3126 3126 3127 3128 3128 3130 3131 3132 3133 3134 3135 3135 3137 3137 3138 3140 3141 3141 3142 3143 3145
3129 3131 3130 3130 3130 3130 3130 3130 3130 3131 3131 3132 3131 3130 3129 3128 3126 3123 3122 3122 3122 3122 3122 3124 3123 3125 3126 3128 3128 3129 3130 3131 3132 3133 3134 3135 3134 3135 3136 3136 3138 3139 3140
3124 3124 3122 3124 3124 3125 3125 3126 3126 3128 3128 3129 3128 3127 3127 3126 3123 3121 3118 3116 3117 3117 3118 3120 3122 3122 3123 3125 3125 3126 3127 3128 3129 3129 3130 3130 3131 3131 3132 3132 3134 3133 3133
3116 3117 3114 3116 3117 3118 3118 3119 3122 3123 3124 3125 3125 3125 3124 3124 3121 3120 3116 3112 3113 3114 3115 3116 3118 3119 3120 3121 3122 3123 3124 3125 3126 3127 3127 3127 3127 3127 3127 3128 3129 3129 3130
3110 3111 3108 3108 3108 3110 3113 3114 3115 3116 3118 3119 3121 3121 3120 3121 3119 3118 3115 3113 3111 3112 3112 3112 3114 3115 3116 3116 3117 3118 3119 3121 3122 3122 3123 3123 3123 3124 3124 3124 3124 3124 3125
3107 3104 3099 3094 3102 3104 3106 3111 3111 3111 3113 3114 3115 3115 3116 3117 3116 3115 3114 3112 3110 3110 3110 3109 3109 3110 3111 3113 3113 3114 3116 3117 3117 3119 3118 3118 3119 3119 3120 3119 3119 3120 3121
3095 3098 3090 3073 3092 3099 3104 3105 3106 3106 3108 3109 3110 3110 3111 3113 3112 3112 3111 3110 3109 3107 3107 3108 3108 3108 3109 3110 3111 3112 3112 3113 3115 3115 3115 3115 3116 3116 3115 3115 3115 3115 3116
3084 3041 3047 3058 3075 3092 3101 3101 3102 3103 3103 3103 3104 3106 3106 3107 3108 3108 3107 3106 3105 3105 3103 3103 3104 3105 3107 3107 3108 3109 3110 3110 3111 3111 3111 3110 3110 3110 3110 3111 3111 3111 3109
3074 3040 3035 3046 3078 3092 3095 3094 3096 3098 3098 3099 3100 3100 3101 3101 3103 3104 3103 3102 3101 3101 3100 3100 3101 3101 3102 3103 3104 3104 3105 3105 3106 3106 3106 3106 3106 3105 3105 3106 3105 3105 3104
3073 3076 3060 3078 3082 3086 3084 3085 3089 3090 3093 3094 3094 3095 3095 3096 3097 3097 3097 3097 3095 3096 3096 3095 3096 3096 3097 3097 3098 3098 3099 3099 3100 3100 3100 3101 3099 3099 3099 3099 3099 3098 3096
3060 3063 3067 3070 3069 3072 3073 3078 3083 3083 3087 3090 3089 3091 3090 3091 3091 3091 3091 3091 3090 3090 3090 3090 3090 3090 3090 3090 3091 3091 3091 3092 3092 3092 3093 3092 3092 3090 3089 3088 3087 3086 3087
3058 3058 3057 3058 3061 3067 3069 3073 3077 3078 3083 3084 3085 3084 3084 3085 3085 3085 3085 3086 3085 3086 3085 3084 3083 3082 3082 3081 3082 3084 3085 3085 3082 3084 3083 3081 3082 3082 3081 3081 3079 3078 3075
3052 3052 3055 3054 3056 3062 3061 3065 3070 3074 3076 3079 3077 3077 3079 3079 3079 3080 3081 3082 3082 3082 3082 3080 3080 3079 3079 3078 3078 3077 3077 3077 3077 3077 3076 3075 3074 3074 3072 3072 3070 3068 3066
3042 3047 3043 3043 3047 3055 3054 3059 3064 3067 3068 3069 3071 3072 3074 3075 3075 3075 3077 3078 3078 3077 3076 3077 3077 3076 3074 3073 3073 3072 3072 3072 3071 3069 3069 3069 3068 3067 3066 3064 3061 3059 3058
3042 3045 3047 3046 3041 3044 3049 3052 3055 3059 3062 3064 3066 3067 3068 3069 3070 3072 3073 3074 3076 3076 3075 3074 3073 3071 3071 3069 3068 3067 3067 3066 3065 3064 3063 3062 3060 3058 3057 3055 3053 3051 3050
3048 3048 3048 3048 3046 3047 3048 3050 3053 3054 3058 3061 3062 3061 3063 3063 3066 3069 3070 3071 3071 3070 3072 3069 3067 3067 3066 3065 3064 3063 3061 3060 3059 3058 3057 3055 3054 3050 3050 3047 3045 3043 3041
3045 3046 3046 3047 3048 3049 3051 3052 3052 3052 3055 3056 3060 3062 3063 3061 3063 3065 3068 3067 3066 3065 3067 3064 3063 3060 3057 3057 3057 3055 3054 3052 3051 3049 3048 3046 3043 3040 3039 3037 3035 3032 3031
3042 3045 3046 3045 3047 3048 3048 3050 3053 3052 3054 3057 3058 3060 3060 3061 3062 3061 3064 3063 3062 3060 3060 3059 3058 3056 3052 3050 3050 3049 3048 3046 3044 3042 3040 3039 3037 3034 3031 3028 3025 3023 3021
3039 3040 3040 3041 3042 3045 3045 3047 3050 3052 3053 3054 3055 3055 3056 3056 3057 3058 3058 3055 3056 3054 3053 3052 3050 3049 3048 3046 3043 3042 3041 3040 3039 3036 3035 3032 3030 3027 3024 3021 3019 3016 3013
3038 3038 3039 3038 3041 3044 3045 3046 3048 3050 3051 3052 3050 3052 3050 3053 3053 3051 3052 3050 3050 3050 3048 3046 3046 3044 3045 3041 3040 3039 3037 3035 3033 3031 3029 3025 3023 3020 3017 3014 3011 3008 3006
3038 3038 3038 3039 3041 3042 3042 3044 3046 3046 3047 3048 3049 3048 3049 3048 3048 3047 3046 3047 3046 3045 3044 3042 3043 3041 3039 3038 3036 3034 3032 3029 3027 3025 3022 3019 3016 3012 3009 3006 3003 3000 2997
Wind_Speed
8 8 7 6 4 2 3 4 4 3 3 4 5 6 8 8 8 9 10 10 10 10 10 9 10 12 13 15 15 14 15 15 17 12 6 6 6 7 6 9 9 8 7
7 7 5 4 4 3 4 3 4 6 7 6 7 6 7 7 8 8 9 12 12 11 10 10 10 10 10 13 13 14 14 13 16 11 9 8 8 7 8 10 10 9 9
6 9 7 4 3 2 3 5 6 7 9 9 8 8 9 11 12 13 12 11 11 12 11 10 10 10 9 10 11 12 13 10 12 9 11 10 10 10 9 9 11 9 11
7 9 10 7 5 3 3 3 6 8 8 9 7 7 11 14 16 16 15 13 13 13 12 11 11 10 11 10 10 11 11 9 9 16 13 12 11 12 12 10 14 10 12
10 12 11 8 9 5 4 4 5 5 6 5 3 6 11 17 19 13 12 12 13 12 14 14 12 11 11 11 11 11 13 12 12 14 14 12 11 16 15 14 15 13 14
19 14 16 13 10 9 6 6 5 4 4 2 4 9 12 18 21 15 16 16 13 11 12 13 12 13 13 12 12 13 14 13 13 13 14 16 15 18 17 18 16 17 15
25 20 20 15 13 11 10 8 6 5 5 4 4 7 12 16 18 18 12 15 17 13 12 11 15 13 14 13 12 12 12 11 11 12 12 13 14 15 16 16 17 15 18
30 26 26 20 16 14 12 11 8 8 7 7 6 7 11 13 15 19 20 13 15 17 14 10 11 12 11 11 12 12 12 12 12 12 12 13 13 15 16 17 16 20 20
34 31 32 22 19 18 15 13 10 8 10 11 9 9 11 12 14 17 20 15 12 11 11 5 9 12 10 11 13 12 13 12 12 13 14 14 14 14 16 15 17 19 20
40 33 36 27 22 20 18 15 13 11 13 11 11 10 10 12 13 16 18 18 9 10 10 7 10 11 9 11 12 13 14 14 13 15 16 17 16 16 16 15 16 16 16
41 38 38 30 23 20 17 16 16 14 13 12 13 10 11 12 14 15 18 17 15 8 12 12 13 11 18 14 13 15 17 17 17 15 17 17 18 17 14 14 14 15 15
39 43 44 38 23 18 16 14 16 16 15 15 15 12 14 12 14 15 17 18 15 9 10 13 12 11 11 12 14 13 14 16 17 16 16 16 14 14 15 14 14 15 17
41 64 39 27 15 12 13 14 18 19 19 20 17 16 15 14 12 17 18 20 18 13 13 12 11 13 14 12 13 13 14 14 15 14 12 11 14 14 13 14 13 15 18
41 41 8 4 10 13 22 27 19 21 23 20 18 18 18 15 14 14 18 20 21 18 15 12 11 10 13 15 16 16 15 15 16 12 11 15 21 26 26 26 25 23 24
31 21 24 17 24 21 21 20 21 23 19 15 15 17 18 16 14 17 19 19 18 20 17 17 17 16 18 17 16 15 18 18 21 23 26 26 25 30 34 32 30 30 31
24 27 25 19 20 19 16 21 21 19 19 20 25 24 16 14 15 17 17 16 14 16 16 16 20 21 19 21 19 22 23 22 24 24 26 31 29 29 30 33 34 34 30
24 26 27 26 25 25 23 24 23 22 19 15 21 19 15 15 14 14 12 10 10 11 12 12 16 20 22 22 22 25 25 28 30 27 30 30 27 34 27 31 26 35 37
27 23 21 25 25 19 19 17 17 16 15 19 18 11 14 16 11 9 8 9 10 10 10 9 11 12 14 16 18 19 18 19 21 21 24 24 30 29 31 33 35 31 35
34 25 33 30 30 26 21 18 20 14 13 10 8 7 10 6 7 8 10 11 10 10 12 10 12 14 15 16 17 18 18 16 15 15 17 19 22 25 26 25 27 25 26
2 17 21 18 26 31 28 26 26 25 16 17 8 12 13 13 13 16 18 15 10 12 11 15 16 18 15 18 16 15 15 16 16 16 17 19 21 22 23 23 24 24 25
3 5 2 1 18 18 15 6 4 10 9 19 12 20 9 16 25 17 16 19 23 19 18 14 20 24 22 22 21 23 23 23 25 26 27 29 23 20 25 27 26 27 28
6 3 1 5 3 6 3 2 5 2 5 9 15 18 21 28 23 23 17 16 18 27 17 24 26 27 26 26 26 25 25 26 28 29 30 30 27 30 27 29 32 31 31
6 9 9 7 10 10 9 12 18 14 19 17 15 16 12 21 23 19 13 21 21 23 21 19 21 22 26 24 23 24 26 25 22 21 21 21 23 24 25 25 27 29 32
7 7 8 9 10 8 12 13 15 20 23 23 23 18 21 16 16 22 24 23 18 19 17 18 18 17 13 13 14 15 16 15 16 19 20 21 21 22 22 23 23 25 25
7 6 7 10 8 11 17 17 18 18 19 16 12 16 20 22 24 19 16 17 16 14 13 13 12 12 10 11 12 14 16 18 19 20 22 21 22 23 24 25 26 26 28
2 2 3 5 6 8 11 9 12 14 12 15 17 18 19 17 14 13 13 11 14 13 12 14 13 15 15 15 15 15 16 17 19 21 22 25 26 27 29 31 31 32 33
Wind_Direction
342 355 349 359 353 337 314 315 320 322 317 327 333 345 349 333 316 299 287 282 273 273 274 281 269 270 272 265 264 261 258 275 258 237 253 274 283 267 240 233 223 229 241
326 343 333 336 356 340 315 299 309 304 303 304 312 318 341 339 334 325 312 292 283 278 275 267 266 272 266 261 256 260 262 256 254 242 258 262 271 271 274 251 239 249 248
300 323 332 317 316 333 329 326 313 307 301 299 304 309 317 310 306 306 309 294 286 275 269 269 270 271 274 269 268 263 258 262 239 247 259 250 260 255 258 274 269 262 253
303 308 321 306 294 306 319 333 310 311 306 304 300 313 327 326 308 298 299 286 283 279 270 264 264 271 270 275 270 259 259 255 239 260 256 251 240 253 256 267 263 266 266
286 291 294 298 271 255 236 271 282 299 326 335 338 334 347 338 335 319 301 280 275 276 275 268 265 262 268 272 271 267 262 264 253 248 252 235 255 255 252 264 260 269 266
275 275 278 282 274 263 252 256 291 303 301 284 323 341 353 351 348 315 300 292 273 272 266 269 273 272 270 269 268 265 262 261 260 256 252 253 247 250 250 248 267 270 264
268 263 268 264 261 259 256 255 266 258 269 277 312 349 352 1 356 353 313 280 279 263 265 266 269 269 259 261 259 262 263 260 259 261 263 262 259 250 251 263 257 270 263
258 258 261 257 261 250 249 256 258 261 275 288 309 332 337 343 341 346 344 293 278 267 257 259 269 277 283 271 264 260 258 259 261 262 263 266 266 268 266 264 246 265 234
257 251 254 250 251 248 239 242 246 252 269 275 290 311 326 326 337 342 349 335 286 261 254 257 273 268 272 273 274 269 265 264 267 272 275 276 274 271 269 264 259 261 259
252 254 249 246 244 239 233 236 237 252 253 265 275 297 313 314 329 339 346 355 307 279 244 237 259 277 282 273 272 275 278 273 278 284 280 279 275 269 267 265 264 264 254
258 254 247 236 241 234 229 235 239 243 255 262 272 283 291 306 319 332 337 336 347 326 271 249 250 257 248 265 274 274 276 277 280 274 278 283 284 278 270 265 267 268 259
259 257 244 226 222 224 232 240 246 250 257 259 265 271 274 287 303 319 328 330 328 325 298 285 258 272 271 267 271 275 273 276 276 277 281 288 290 285 284 280 277 274 263
255 270 255 198 184 206 225 243 262 262 256 257 256 260 270 277 287 309 322 325 317 300 293 295 261 281 267 273 274 278 284 286 279 279 287 292 295 296 295 294 284 282 276
280 283 149 170 199 210 275 268 270 267 258 261 269 272 278 284 295 309 313 315 312 300 286 291 287 271 278 288 270 264 273 271 265 268 275 288 291 295 300 302 296 290 288
287 269 310 283 242 257 258 255 261 264 252 248 265 274 277 289 300 308 313 312 308 301 277 269 273 281 276 278 279 266 260 265 272 276 280 283 277 283 289 288 287 286 284
288 286 284 269 261 268 258 258 255 259 265 271 270 282 272 280 295 303 310 311 310 304 293 271 269 273 277 279 280 279 277 266 266 276 278 273 280 280 284 286 285 287 277
261 266 268 269 274 268 249 257 255 253 256 262 260 259 267 279 288 297 302 304 306 303 297 287 276 276 277 285 279 274 268 279 272 282 288 273 284 283 280 283 276 289 276
247 246 245 241 235 258 221 249 254 245 251 254 257 258 272 280 282 288 294 294 296 295 295 290 304 303 293 291 292 290 290 286 296 282 284 285 283 285 282 278 279 273 273
254 249 212 206 238 201 169 215 193 192 194 222 247 290 317 312 296 290 286 292 294 283 291 302 305 302 297 299 303 304 304 304 300 291 285 283 287 282 286 294 299 293 278
230 224 227 216 225 215 191 205 187 193 207 234 250 269 290 296 278 281 286 281 296 308 288 284 282 290 298 306 305 306 303 300 301 296 288 284 285 287 289 291 293 291 285
104 166 57 193 236 211 230 129 238 223 238 242 268 259 243 275 266 277 283 292 302 289 310 274 275 293 292 291 290 293 295 294 294 295 296 296 296 289 296 294 289 292 292
310 319 211 97 138 154 118 244 18 328 270 240 279 281 275 276 287 295 290 290 278 286 276 297 285 293 296 297 299 298 299 300 300 299 298 294 293 291 295 285 287 291 290
295 295 285 253 213 219 239 223 201 243 233 250 263 261 273 272 272 263 264 291 278 275 284 286 285 284 290 293 290 290 293 296 299 301 301 299 295 296 299 299 299 296 290
283 281 281 292 284 266 234 227 226 228 239 250 258 253 253 236 249 269 287 282 284 289 290 288 284 287 297 297 293 294 300 308 311 310 308 306 304 302 302 302 301 302 301
281 265 253 240 241 239 230 232 240 243 247 237 223 250 283 278 286 282 280 289 297 291 291 291 304 307 315 308 308 309 308 309 310 310 311 312 313 312 311 310 308 306 301
295 275 246 235 234 238 245 249 233 241 235 244 253 266 272 275 279 284 286 290 295 298 299 303 312 313 317 315 316 318 320 321 320 318 315 314 313 313 310 309 306 304 302